Flag for France Weather past 2 weeks in Douai, France

Now
52 °F

Sunny.


Feels Like: 49 °F
Forecast: 47 / 68 °F
Wind: 9 mph from West

Location: Lille Airport

Current Time: May 30, 2015 at 9:03:10 AM

Latest Report: May 30, 2015 at 8:30 AM


Visibility: 10 mi

Pressure: 29.95 "Hg

Humidity: 72%

Dew point: 43 °F

Location of DouaiLocation

Historic Weather in Douai — Graph

°F

Douai temperature yesterday

Maximum temperature yesterday: 59 °F (at 12:00 PM)
Minimum temperature yesterday: 46 °F (at 2:30 AM)
Average temperature yesterday: 53 °F

Past Weeks' High & Low Weather Summary

 TemperatureHumidityPressure
High70 °F (May 24, 5:30 PM)100% (May 21, 4:30 AM)30.36 "Hg (May 21, 4:30 AM)
Low41 °F (May 21, 4:30 AM)34% (May 21, 4:30 PM)29.68 "Hg (May 18, 7:30 PM)
Average55 °F71%30.09 "Hg
* Reported May 15 7:00 AM — May 30 7:30 AM, Douai, Weather by CustomWeather, © 2015

Note: Actual official high and low records may vary slightly from our data, if they occured in-between our weather recording intervals... More about our weather records

Advertising

Douai weather history for previous 24 hours

 ConditionsComfort  
Time TempWeatherWind HumidityBarometerVisibility
7:30 AM
Sat, May 30
48 °FScattered clouds.7 mph87%29.92 "HgN/A
7:00 AM46 °FScattered clouds.6 mph93%29.92 "HgN/A
6:30 AM46 °FPassing clouds.3 mph93%29.92 "HgN/A
6:00 AM45 °FPassing clouds.No wind87%29.89 "HgN/A
5:30 AM45 °FClear.No wind87%29.89 "Hg10 mi
5:00 AM45 °FClear.5 mph93%29.89 "Hg10 mi
4:30 AM46 °FClear.6 mph87%29.89 "Hg10 mi
4:00 AM46 °FClear.5 mph87%29.89 "Hg10 mi
3:30 AM46 °FClear.6 mph93%29.89 "Hg10 mi
3:00 AM48 °FClear.6 mph87%29.86 "Hg10 mi
2:30 AM48 °FPassing clouds.7 mph87%29.86 "HgN/A
2:00 AM48 °FClear.6 mph87%29.86 "Hg10 mi
1:30 AM50 °FClear.7 mph88%29.86 "Hg10 mi
1:00 AM50 °FClear.7 mph88%29.86 "Hg10 mi
12:30 AM50 °FClear.8 mph88%29.83 "Hg10 mi
12:00 AM52 °FClear.9 mph82%29.83 "Hg10 mi
11:30 PM
Fri, May 29
52 °FPassing clouds.10 mph88%29.83 "HgN/A
10:30 PM54 °FScattered clouds.13 mph82%29.80 "HgN/A
10:00 PM54 °FPartly sunny.10 mph88%29.80 "HgN/A
9:00 PM54 °FPartly sunny.12 mph88%29.77 "HgN/A
8:30 PM52 °FLight rain. Partly sunny.10 mph94%29.77 "HgN/A
8:00 PM54 °FLight rain. Partly sunny.15 mph82%29.80 "HgN/A
7:30 PM54 °FLight rain. Partly sunny.9 mph82%29.77 "HgN/A
7:00 PM54 °FLight rain. Partly sunny.14 mph82%29.80 "Hg3 mi
6:30 PM55 °FLight rain. Partly sunny.18 mph77%29.80 "Hg4 mi
6:00 PM57 °FPartly sunny.16 mph63%29.77 "HgN/A
5:30 PM55 °FPartly sunny.14 mph72%29.80 "HgN/A
5:00 PM55 °FPartly sunny.15 mph72%29.80 "HgN/A
4:30 PM55 °FPartly sunny.20 mph72%29.80 "HgN/A
4:00 PM57 °FPartly sunny.18 mph63%29.80 "HgN/A
3:30 PM57 °FPartly sunny.17 mph63%29.83 "HgN/A
3:00 PM57 °FPartly sunny.18 mph59%29.83 "HgN/A
2:30 PM57 °FPartly sunny.20 mph59%29.83 "HgN/A
2:00 PM57 °FPartly sunny.16 mph59%29.83 "HgN/A
1:30 PM55 °FPartly sunny.16 mph63%29.83 "HgN/A
1:00 PM57 °FPartly sunny.16 mph59%29.83 "HgN/A
12:30 PM57 °FPartly sunny.15 mph55%29.83 "HgN/A
12:00 PM59 °FPartly sunny.16 mph51%29.83 "HgN/A
11:30 AM57 °FMostly cloudy.16 mph59%29.86 "HgN/A
11:00 AM55 °FMore clouds than sun.15 mph67%29.86 "HgN/A
10:30 AM55 °FMore clouds than sun.15 mph67%29.86 "HgN/A
10:00 AM54 °FOvercast.10 mph72%29.86 "HgN/A
9:30 AM54 °FOvercast.13 mph77%29.89 "HgN/A
9:00 AM54 °FOvercast.13 mph77%29.89 "HgN/A
Weather by CustomWeather, © 2015

See weather overviewHow to use our weather pages